This demonstration page uses our WeatherBlox Daily Observations layout. Learn more.

36.17497, -115.13722

Hourly Observations for June 20, 2018

Temp ( °F °C ) Dew Point ( °F °C ) Humidity (%) Winds ( mph kmh ) Pressure ( in mb ) Visibility ( mi km ) Precip ( " mm )
12:53 am 00:53 Clear 83 28.3 31 -0.6 15 15 NW 6 9 29.83 1010 10 16.09344 0 0
1:53 am 01:53 Clear 80 26.7 30 -1.1 16 16 N 5 7 29.83 1010 10 16.09344 0 0
2:53 am 02:53 Clear 83 28.3 29 -1.7 14 14 WNW 8 13 29.83 1010 10 16.09344 0 0
3:53 am 03:53 Clear 79 26.1 31 -0.6 17 17 WNW 6 9 29.83 1010 10 16.09344 0 0
4:53 am 04:53 Clear 81 27.2 28 -2.2 14 14 ENE 7 11 29.85 1011 10 16.09344 0 0
5:53 am 05:53 Sunny 81 27.2 27 -2.8 14 14 NNE 3 6 29.88 1012 10 16.09344 0 0
6:53 am 06:53 Sunny 82 27.8 30 -1.1 15 15 SW 6 9 29.88 1012 10 16.09344 0 0
7:53 am 07:53 Sunny 86 30 31 -0.6 14 14 W 7 11 29.91 1013 10 16.09344 0 0
8:53 am 08:53 Sunny 89 31.7 29 -1.7 11 11 Calm 29.91 1013 10 16.09344 0 0
9:53 am 09:53 Sunny 92 33.3 31 -0.6 11 11 N 6 9 29.91 1013 10 16.09344 0 0
10:53 am 10:53 Sunny 93 33.9 31 -0.6 11 11 N 3 6 29.91 1013 10 16.09344 0 0
11:53 am 11:53 Sunny 96 35.6 29 -1.7 9 9 SSW 5 7 29.88 1012 10 16.09344 0 0
12:53 pm 12:53 Sunny 99 37.2 29 -1.7 8 8 N 7 11 29.85 1011 10 16.09344 0 0
1:53 pm 13:53 Sunny 101 38.3 24 -4.4 6 6 undefined N/A 29.85 1011 10 16.09344 0 0
2:53 pm 14:53 Sunny 103 39.4 23 -5 6 6 ESE 3 6 29.83 1010 10 16.09344 0 0
3:53 pm 15:53 Sunny 103 39.4 25 -3.9 6 6 S 6 9 29.8 1009 10 16.09344 0 0
4:53 pm 16:53 Sunny 103 39.4 25 -3.9 6 6 N 5 7 29.77 1008 10 16.09344 0 0
5:53 pm 17:53 Sunny 104 40 25 -3.9 6 6 SE 7 11 29.77 1008 10 16.09344 0 0
6:53 pm 18:53 Sunny 104 40 23 -5 6 6 ESE 6 9 29.74 1007 10 16.09344 0 0
7:53 pm 19:53 Sunny 101 38.3 25 -3.9 7 7 ESE 6 9 29.74 1007 10 16.09344 0 0
8:53 pm 20:53 Clear 99 37.2 26 -3.3 7 7 SSE 5 7 29.77 1008 10 16.09344 0 0
9:53 pm 21:53 Clear 95 35 32 0 11 11 Calm 29.77 1008 10 16.09344 0 0
10:53 pm 22:53 Clear 90 32.2 37 2.8 15 15 N 6 9 29.77 1008 10 16.09344 0 0
11:53 pm 23:53 Clear 88 31.1 34 1.1 15 15 NNW 6 9 29.77 1008 10 16.09344 0 0

Powered by AerisWeather